2 Carport Messungen

Zurück zum Überblick

Zeitpunkt Temperatur Luftfeuchte
23.01.2021 18:14:47 3,2 C 84,0%
23.01.2021 18:07:46 3,2 C 84,0%
23.01.2021 18:00:50 3,2 C 84,0%
23.01.2021 17:53:44 3,3 C 84,0%
23.01.2021 17:46:43 3,3 C 84,0%
23.01.2021 17:39:42 3,4 C 84,0%
23.01.2021 17:32:39 3,4 C 84,0%
23.01.2021 17:25:38 3,4 C 84,0%
23.01.2021 17:18:34 3,5 C 84,0%
23.01.2021 17:11:33 3,5 C 84,0%
23.01.2021 17:04:31 3,5 C 84,0%
23.01.2021 16:57:28 3,5 C 84,0%
23.01.2021 16:50:27 3,5 C 84,0%
23.01.2021 16:43:27 3,6 C 84,0%
23.01.2021 16:36:24 3,6 C 84,0%
23.01.2021 16:29:21 3,7 C 84,0%
23.01.2021 16:22:19 3,7 C 84,0%
23.01.2021 16:15:18 3,7 C 84,0%
23.01.2021 16:08:17 3,7 C 84,0%
23.01.2021 16:01:14 3,7 C 84,0%
23.01.2021 15:54:18 3,7 C 84,0%
23.01.2021 15:47:10 3,7 C 84,0%
23.01.2021 15:40:08 3,7 C 84,0%
23.01.2021 15:33:05 3,7 C 84,0%
23.01.2021 15:26:05 3,7 C 84,0%
23.01.2021 15:19:03 3,7 C 84,0%
23.01.2021 15:12:00 3,7 C 84,0%
23.01.2021 15:04:59 3,7 C 84,0%
23.01.2021 14:57:58 3,7 C 85,0%
23.01.2021 14:50:54 3,7 C 84,0%
23.01.2021 14:43:53 3,7 C 84,0%
23.01.2021 14:36:50 3,7 C 84,0%
23.01.2021 14:29:54 3,7 C 84,0%
23.01.2021 14:22:47 3,7 C 84,0%
23.01.2021 14:15:46 3,7 C 84,0%
23.01.2021 14:08:43 3,7 C 85,0%
23.01.2021 14:01:40 3,7 C 84,0%
23.01.2021 13:54:39 3,7 C 85,0%
23.01.2021 13:47:37 3,7 C 85,0%
23.01.2021 13:40:36 3,7 C 85,0%
23.01.2021 13:33:34 3,7 C 85,0%
23.01.2021 13:26:31 3,7 C 85,0%
23.01.2021 13:19:29 3,7 C 85,0%
23.01.2021 13:12:28 3,7 C 85,0%
23.01.2021 13:05:25 3,6 C 85,0%
23.01.2021 12:58:23 3,6 C 84,0%
23.01.2021 12:51:20 3,6 C 84,0%
23.01.2021 12:44:24 3,6 C 84,0%
23.01.2021 12:37:17 3,5 C 84,0%
23.01.2021 12:30:15 3,5 C 84,0%
23.01.2021 12:23:19 3,5 C 84,0%
23.01.2021 12:16:11 3,5 C 84,0%
23.01.2021 12:09:10 3,5 C 84,0%
23.01.2021 12:02:07 3,4 C 84,0%
23.01.2021 11:55:06 3,2 C 84,0%
23.01.2021 11:48:04 3,6 C 84,0%
23.01.2021 11:41:01 3,6 C 84,0%
23.01.2021 11:34:00 3,6 C 84,0%
23.01.2021 11:26:56 3,7 C 84,0%
23.01.2021 11:19:55 3,7 C 84,0%
23.01.2021 11:12:55 3,7 C 84,0%
23.01.2021 11:05:52 3,7 C 84,0%
23.01.2021 10:58:49 3,8 C 84,0%
23.01.2021 10:51:48 3,8 C 84,0%
23.01.2021 10:44:52 3,9 C 84,0%
23.01.2021 10:37:47 4,0 C 83,0%
23.01.2021 10:30:44 4,1 C 83,0%
23.01.2021 10:23:42 4,2 C 83,0%
23.01.2021 10:16:46 4,4 C 82,0%
23.01.2021 10:09:37 4,6 C 82,0%
23.01.2021 10:02:41 4,8 C 83,0%
23.01.2021 09:55:35 4,9 C 83,0%
23.01.2021 09:48:33 4,9 C 83,0%
23.01.2021 09:41:32 4,9 C 83,0%
23.01.2021 09:34:29 4,9 C 83,0%
23.01.2021 09:27:27 4,9 C 83,0%
23.01.2021 09:20:24 5,0 C 83,0%
23.01.2021 09:13:22 5,0 C 83,0%
23.01.2021 09:06:19 5,0 C 84,0%
23.01.2021 08:59:18 5,0 C 84,0%
23.01.2021 08:52:16 5,1 C 84,0%
23.01.2021 08:45:14 5,0 C 84,0%
23.01.2021 08:38:11 5,0 C 84,0%
23.01.2021 08:31:09 5,0 C 85,0%
23.01.2021 08:24:07 4,9 C 84,0%
23.01.2021 08:17:05 4,9 C 85,0%
23.01.2021 08:10:03 4,9 C 86,0%
23.01.2021 08:02:59 4,7 C 86,0%
23.01.2021 07:55:59 4,6 C 86,0%
23.01.2021 07:48:57 4,5 C 86,0%
23.01.2021 07:41:55 4,3 C 86,0%
23.01.2021 07:34:52 4,0 C 86,0%
23.01.2021 07:27:52 3,9 C 85,0%
23.01.2021 07:20:50 4,0 C 85,0%
23.01.2021 07:13:48 4,0 C 85,0%
23.01.2021 07:06:47 4,1 C 85,0%
23.01.2021 06:59:46 4,2 C 85,0%
23.01.2021 06:52:44 4,2 C 85,0%
23.01.2021 06:45:44 4,2 C 85,0%
23.01.2021 06:38:41 4,2 C 85,0%
23.01.2021 06:31:40 4,3 C 85,0%
23.01.2021 06:24:38 4,3 C 85,0%
23.01.2021 06:17:38 4,3 C 85,0%
23.01.2021 06:10:42 4,3 C 85,0%
23.01.2021 06:03:32 4,3 C 85,0%
23.01.2021 05:56:30 4,3 C 85,0%
23.01.2021 05:49:27 4,3 C 85,0%
23.01.2021 05:42:24 4,4 C 85,0%
23.01.2021 05:35:22 4,4 C 85,0%
23.01.2021 05:28:21 4,4 C 85,0%
23.01.2021 05:21:19 4,5 C 84,0%
23.01.2021 05:14:16 4,5 C 84,0%
23.01.2021 05:07:13 4,5 C 84,0%
23.01.2021 05:00:13 4,5 C 84,0%
23.01.2021 04:53:11 4,5 C 84,0%
23.01.2021 04:46:10 4,6 C 84,0%
23.01.2021 04:39:09 4,6 C 84,0%
23.01.2021 04:32:06 4,6 C 84,0%
23.01.2021 04:25:10 4,6 C 84,0%
23.01.2021 04:18:05 4,7 C 84,0%
23.01.2021 04:11:03 4,7 C 84,0%
23.01.2021 04:04:01 4,7 C 84,0%
23.01.2021 03:56:57 4,7 C 84,0%
23.01.2021 03:49:55 4,7 C 84,0%
23.01.2021 03:42:53 4,7 C 84,0%
23.01.2021 03:35:53 4,8 C 84,0%
23.01.2021 03:28:50 4,8 C 84,0%
23.01.2021 03:21:49 4,8 C 84,0%
23.01.2021 03:14:46 4,9 C 84,0%
23.01.2021 03:07:46 4,9 C 84,0%
23.01.2021 03:00:45 4,9 C 84,0%
23.01.2021 02:53:43 4,9 C 84,0%
23.01.2021 02:46:40 4,9 C 84,0%
23.01.2021 02:39:38 5,0 C 84,0%
23.01.2021 02:32:36 5,0 C 84,0%
23.01.2021 02:25:33 5,0 C 84,0%
23.01.2021 02:18:30 5,0 C 84,0%
23.01.2021 02:11:28 5,0 C 84,0%
23.01.2021 02:04:25 5,1 C 84,0%
23.01.2021 01:57:23 5,1 C 84,0%
23.01.2021 01:50:22 5,1 C 83,0%
23.01.2021 01:43:22 5,1 C 83,0%
23.01.2021 01:36:21 5,2 C 83,0%
23.01.2021 01:29:18 5,2 C 83,0%
23.01.2021 01:22:15 5,2 C 83,0%
23.01.2021 01:15:15 5,2 C 83,0%
23.01.2021 01:08:13 5,3 C 83,0%
23.01.2021 01:01:12 5,3 C 83,0%
23.01.2021 00:54:10 5,3 C 83,0%
23.01.2021 00:47:09 5,3 C 83,0%
23.01.2021 00:40:05 5,4 C 83,0%
23.01.2021 00:33:04 5,4 C 83,0%
23.01.2021 00:26:08 5,5 C 83,0%
23.01.2021 00:18:59 5,5 C 83,0%
23.01.2021 00:11:58 5,5 C 83,0%
23.01.2021 00:04:56 5,5 C 82,0%